User: anonymous   Login
Location: Unspecified
(0.0000°N, 0.0000°E)
Time: 04:50:22
(UTC+00:00)
Language:

Aussat K3 - Orbit

View from above orbital plane
View from above orbital plane
View from above satellite
View from above satellite

Ground track
Ground track

The orbit data is extracted from the following two-line orbital elements,

1 18350U 87078A   15115.16837556 -.00000214  00000-0  00000+0 0  9998
2 18350 014.0490 026.4444 0004097 269.2497 285.4241 00.98906843100251
Epoch (UTC): 25 April 2015 04:02:27
Eccentricity: 0.0004097
inclination: 14.0490°
perigee height: 36156 km
apogee height: 36190 km
right ascension of ascending node: 26.4444°
argument of perigee: 269.2497°
revolutions per day: 0.98906843
mean anomaly at epoch: 285.4241°
orbit number at epoch: 10025

The dashed part of the orbit path shows where the satellite is in the earth's shadow,  

DLR